軌道要素
Epoch 2014 Aug. 11.0 TT = JDT 2456880.5
T 2014 Aug. 12.39438 TT MPCW
q 5.9670565 (2000.0) P Q
n 0.01736497 Peri. 113.56132 +0.98180803 -0.17555620
a 14.7690752 Node 256.61237 +0.13548361 +0.91464478
e 0.5959763 Incl. 4.26447 +0.13303079 +0.36414962
P 56.8
From 215 observations 2013 Aug. 15-2015 Nov. 14, mean residual 0".5.
|